1290297634484,32.0794
1290297694484,32.0192
1290297754484,32.1402
1290297814484,32.1737
1290297874484,32.1156
1290297934484,32.0902
1290297994484,32.1337
1290298054484,32.1545
1290298114484,32.1692
1290298174484,32.1955
1290298234484,32.0724
1290298294484,32.2254
1290298354484,32.0728
1290298414484,32.0643
1290298474484,32.0671
1290298534484,32.1365
1290298594484,32.1367
1290298654484,32.2890
1290298714484,32.1070
1290298774484,32.1040
1290298834484,32.0673
1290298894484,32.2123
1290298954484,32.1681
1290299014484,32.1484
1290299074484,32.1847
1290299134484,32.2360
1290299194484,32.1367
1290299254484,32.1072
1290299314484,32.2101
1290299374484,32.2314
1290299434484,32.2027
1290299494484,32.1793
1290299554484,32.1084
1290299614484,32.1496
1290299674484,32.1736
1290299734484,32.1652
1290299794484,32.1490
1290299854484,32.0993
1290299914484,32.1416
1290299974484,32.0614
1290300034484,32.1626
1290300094484,32.1588
1290300154484,32.1950
1290300214484,32.1042
1290300274484,32.1974
1290300334484,32.1066
1290300394484,32.0715
1290300454484,32.2178
1290300514484,32.2718
1290300574484,32.0576
1290300634484,32.1871
1290300694484,32.1671
1290300754484,32.0663
1290300814484,32.1439
1290300874484,32.2004
1290300934484,32.0019
1290300994484,32.0839
1290301054484,32.0895
1290301114484,32.0735
1290301174484,32.1059
1290301234495,32.0793
1290301294495,32.1590
1290301354495,32.2140
1290301414495,32.2071
1290301474495,32.1549
1290301534495,32.0566
1290301594495,32.2750
1290301654495,32.1423
1290301714495,32.1687
1290301774495,32.1479
1290301834495,32.1302
1290301894495,32.1774
1290301954495,32.2093
1290302014495,32.2023
1290302074495,32.0566
1290302134495,32.1219
1290302194495,32.1161
1290302254495,32.1100
1290302314495,32.2385
1290302374495,32.1069
1290302434495,32.0696
1290302494495,32.1493
1290302554495,32.0921
1290302614495,32.1381
1290302674495,32.2192
1290302734495,32.1464
1290302794495,32.1613
1290302854495,32.0958
1290302914495,32.1636
1290302974495,32.1633
1290303034495,32.1194
1290303094495,32.2088
1290303154495,32.1766
1290303214495,32.2161
1290303274495,32.2409
1290303334495,32.1606
1290303394495,32.2455
1290303454495,32.1909
1290303514495,32.1625
1290303574495,32.1761
1290303634495,32.2285
1290303694495,32.1470
1290303754495,32.1698
1290303814495,32.2615
1290303874495,32.1112
1290303934495,32.1189
1290303994495,32.2227
1290304054495,32.2319
1290304114495,32.1818
1290304174495,32.1336
1290304234495,32.2121
1290304294495,32.1716
1290304354495,32.1965
1290304414495,32.1976
1290304474495,32.1907
1290304534495,32.0711
1290304594495,32.1268
1290304654495,32.1637
1290304714495,32.0992
1290304774495,32.1061
1290304834505,32.2155
1290304894505,32.1535
1290304954505,32.0854
1290305014505,32.0814
1290305074505,32.0747
1290305134505,32.1292
1290305194505,32.0287
1290305254505,32.1434
1290305314505,32.1706
1290305374505,32.1275
1290305434505,32.0885
1290305494505,32.1264
1290305554505,32.1993
1290305614505,32.1270
1290305674505,32.2556
1290305734505,32.2417
1290305794505,32.2116
1290305854505,32.0730
1290305914505,32.1252
1290305974505,32.1099
1290306034505,32.1395
1290306094505,32.0775
1290306154505,32.1139
1290306214505,32.1003
1290306274505,32.2236
1290306334505,32.0754
1290306394505,32.0225
1290306454505,32.0037
1290306514505,32.0630
1290306574505,32.0451
1290306634505,32.0974
1290306694505,32.0805
1290306754505,31.9149
1290306814505,32.1102
1290306874505,32.0222
1290306934505,32.1302
1290306994505,31.9913
1290307054505,32.0883
1290307114505,32.0017
1290307174505,32.1314
1290307234505,32.0073
1290307294505,32.1141
1290307354505,32.0126
1290307414505,32.1324
1290307474505,32.1711
1290307534505,31.9893
1290307594505,32.0191
1290307654505,32.0034
1290307714505,32.0203
1290307774505,32.0124
1290307834505,31.9453
1290307894505,31.9554
1290307954505,31.9728
1290308014505,31.9393
1290308074505,31.9536
1290308134505,32.0152
1290308194505,31.9693
1290308254505,31.9378
1290308314505,31.9186
1290308374505,31.9300
1290308434516,31.9679
1290308494516,31.9236
1290308554516,31.9999
1290308614516,31.8647
1290308674516,31.9183
1290308734516,31.8449
1290308794516,31.9414
1290308854516,32.2285
1290308914516,31.9818
1290308974516,31.9187
1290309034516,31.9186
1290309094516,31.7970
1290309154516,32.0163
1290309214516,31.8852
1290309274516,31.9227
1290309334516,31.9094
1290309394516,31.8862
1290309454516,31.9766
1290309514516,31.9416
1290309574516,31.9189
1290309634516,31.9985
1290309694516,31.8925
1290309754516,31.8845
1290309814516,31.8803
1290309874516,31.8948
1290309934516,31.7819
1290309994516,31.8780
1290310054516,31.9718
1290310114516,31.8469
1290310174516,31.8141
1290310234516,31.9261
1290310294516,31.8994
1290310354516,31.8722
1290310414516,31.7653
1290310474516,31.8458
1290310534516,31.7899
1290310594516,31.8723
1290310654516,31.7867
1290310714516,31.8260
1290310774516,31.7723
1290310834516,31.8490
1290310894516,31.8116
1290310954516,31.6954
1290311014516,31.7328
1290311074516,31.7343
1290311134516,31.7403
1290311194516,31.7839
1290311254516,32.0130
1290311314516,31.8486
1290311374516,31.7626
1290311434516,31.7882
1290311494516,31.7753
1290311554516,31.6639
1290311614516,31.7066
1290311674516,31.7668
1290311734516,31.7858
1290311794516,31.7038
1290311854516,31.9109
1290311914516,31.7504
1290311974516,31.7488
1290312034527,31.7954
1290312094527,31.7817
1290312154527,31.6991
1290312214527,31.7099
1290312274527,31.7228
1290312334527,31.6248
1290312394527,31.6635
1290312454527,31.7448
1290312514527,31.6429
1290312574527,31.7289
1290312634527,31.7044
1290312694527,31.6764
1290312754527,31.6631
1290312814527,31.6995
1290312874527,31.7347
1290312934527,31.7651
1290312994527,31.7394
1290313054527,31.6986
1290313114527,31.8077
1290313174527,31.6684
1290313234527,31.7437
1290313294527,31.7110
1290313354527,31.7168
1290313414527,31.7827
1290313474527,31.7062
1290313534527,31.7052
1290313594527,31.7339
1290313654527,31.4949
1290313714527,31.6579
1290313774527,31.7391
1290313834527,31.6987
1290313894527,31.6322
1290313954527,31.7059
1290314014527,31.6242
1290314074527,31.6349
1290314134527,31.6518
1290314194527,31.6701
1290314254527,31.7113
1290314314527,31.6924
1290314374527,31.6175
1290314434527,31.7266
1290314494527,31.6626
1290314554527,31.6915
1290314614527,31.6404
1290314674527,31.7145
1290314734527,31.6428
1290314794527,31.6164
1290314854527,31.6358
1290314914527,31.6909
1290314974527,31.7343
1290315034527,31.6193
1290315094527,31.6124
1290315154527,31.7063
1290315214527,31.6482
1290315274527,31.7399
1290315334527,31.7088
1290315394527,31.6164
1290315454527,31.6292
1290315514527,31.6679
1290315574527,31.5762
1290315634537,31.5711
1290315694537,31.5681
1290315754537,31.6398
1290315814537,31.6760
1290315874537,31.6369
1290315934537,31.6634
1290315994537,31.6334
1290316054537,31.6750
1290316114537,31.6415
1290316174537,31.8812
1290316234537,31.5768
1290316294537,31.5581
1290316354537,31.6609
1290316414537,31.6802
1290316474537,31.6636
1290316534537,31.6342
1290316594537,31.5301
1290316654537,31.5703
1290316714537,31.6569
1290316774537,31.5204
1290316834537,31.6946
1290316894537,31.6581
1290316954537,31.5640
1290317014537,31.5928
1290317074537,31.5866
1290317134537,31.5631
1290317194537,31.6150
1290317254537,31.6719
1290317314537,31.4938
1290317374537,31.6829
1290317434537,31.6010
1290317494537,31.5383
1290317554537,31.5871
1290317614537,31.5204
1290317674537,31.7143
1290317734537,31.6079
1290317794537,31.5256
1290317854537,31.5568
1290317914537,31.5564
1290317974537,31.5731
1290318034537,31.5892
1290318094537,31.5589
1290318154537,31.4564
1290318214537,31.5361
1290318274537,31.5663
1290318334537,31.5381
1290318394537,31.6809
1290318454537,31.5225
1290318514537,31.4833
1290318574537,31.4347
1290318634537,31.4341
1290318694537,31.4178
1290318754537,31.4647
1290318814537,31.4627
1290318874537,31.5075
1290318934537,31.5488
1290318994537,31.4084
1290319054537,31.5060
1290319114537,31.5597
1290319174537,31.4945
1290319234548,31.3769
1290319294548,31.4785
1290319354548,31.4507
1290319414548,31.3716
1290319474548,31.4845
1290319534548,31.3947
1290319594548,31.5711
1290319654548,31.4190
1290319714548,31.5389
1290319774548,31.4524
1290319834548,31.3376
1290319894548,31.4954
1290319954548,31.3491
1290320014548,31.4284
1290320074548,31.4881
1290320134548,31.3584
1290320194548,31.4585
1290320254548,31.5388
1290320314548,31.3894
1290320374548,31.4064
1290320434548,31.3970
1290320494548,31.3844
1290320554548,31.4630
1290320614548,31.3099
1290320674548,31.3387
1290320734548,31.3023
1290320794548,31.2672
1290320854548,31.3594
1290320914548,31.3932
1290320974548,31.2567
1290321034548,31.3214
1290321094548,31.3012
1290321154548,31.4094
1290321214548,31.3679
1290321274548,31.2941
1290321334548,31.4164
1290321394548,31.3715
1290321454548,31.3694
1290321514548,31.3431
1290321574548,31.3204
1290321634548,31.3286
1290321694548,31.3606
1290321754548,31.4216
1290321814548,31.4009
1290321874548,31.3673
1290321934548,31.3931
1290321994548,31.3286
1290322054548,31.2951
1290322114548,31.3754
1290322174548,31.3773
1290322234548,31.3878
1290322294548,31.3405
1290322354548,31.4340
1290322414548,31.3949
1290322474548,31.2033
1290322534548,31.3535
1290322594548,31.3166
1290322654548,31.3198
1290322714548,31.3169
1290322774548,31.4109
1290322834559,31.3273
1290322894559,31.2634
1290322954559,31.2577
1290323014559,31.2970
1290323074559,31.2805
1290323134559,31.3083
1290323194559,31.3899
1290323254559,31.2980
1290323314559,31.3715
1290323374559,31.3362
1290323434559,31.4478
1290323494559,31.3611
1290323554559,31.3525
1290323614559,31.3675
1290323674559,31.2712
1290323734559,31.3613
1290323794559,31.3484
1290323854559,31.3181
1290323914559,31.4115
1290323974559,31.4736
1290324034559,31.3714
1290324094559,31.2753
1290324154559,31.3446
1290324214559,31.2993
1290324274559,31.2643
1290324334559,31.2714
1290324394559,31.4050
1290324454559,31.3158
1290324514559,31.2646
1290324574559,31.2878
1290324634559,31.3496
1290324694559,31.2998
1290324754559,31.2869
1290324814559,31.2981
1290324874559,31.2484
1290324934559,31.3432
1290324994559,31.2440
1290325054559,31.2028
1290325114559,31.3198
1290325174559,31.2047
1290325234559,31.2483
1290325294559,31.2116
1290325354559,31.3201
1290325414559,31.2214
1290325474559,31.2287
1290325534559,31.2908
1290325594559,31.2950
1290325654559,31.2331
1290325714559,31.3360
1290325774559,31.2596
1290325834559,31.2321
1290325894559,31.3416
1290325954559,31.2220
1290326014559,31.2500
1290326074559,31.3394
1290326134559,31.2796
1290326194559,31.2920
1290326254559,31.3332
1290326314559,31.2832
1290326374559,31.2316
1290326434571,31.2718
1290326494571,31.2681
1290326554571,31.2680
1290326614571,31.3457
1290326674571,31.3076
1290326734571,31.2436
1290326794571,31.3214
1290326854571,31.2711
1290326914571,31.3936
1290326974571,31.2655
1290327034571,31.4891
1290327094571,31.2578
1290327154571,31.2926
1290327214571,31.3598
1290327274571,31.3531
1290327334571,31.3309
1290327394571,31.2476
1290327454571,31.2455
1290327514571,31.2332
1290327574571,31.3290
1290327634571,31.1352
1290327694571,31.2283
1290327754571,31.3027
1290327814571,31.3296
1290327874571,31.2204
1290327934571,31.2866
1290327994571,31.3297
1290328054571,31.3464
1290328114571,31.2430
1290328174571,31.2917
1290328234571,31.1805
1290328294571,31.2454
1290328354571,31.2308
1290328414571,31.1556
1290328474571,31.2365
1290328534571,31.3003
1290328594571,31.1591
1290328654571,31.2906
1290328714571,31.2171
1290328774571,31.2715
1290328834571,31.2371
1290328894571,31.2568
1290328954571,31.3526
1290329014571,31.2142
1290329074571,31.1711
1290329134571,31.1525
1290329194571,31.1723
1290329254571,31.1411
1290329314571,31.1964
1290329374571,31.2267
1290329434571,31.2038
1290329494571,31.2825
1290329554571,31.1658
1290329614571,31.3093
1290329674571,31.1556
1290329734571,31.2758
1290329794571,31.2114
1290329854571,31.2176
1290329914571,31.2751
1290329974571,31.1583
1290330034582,31.1886
1290330094582,31.1070
1290330154582,31.2169
1290330214582,31.1593
1290330274582,31.1524
1290330334582,31.1649
1290330394582,31.1888
1290330454582,31.2222
1290330514582,31.0845
1290330574582,31.2226
1290330634582,31.1612
1290330694582,31.2135
1290330754582,31.1359
1290330814582,31.1668
1290330874582,31.2305
1290330934582,31.1090
1290330994582,31.1679
1290331054582,31.1631
1290331114582,31.2036
1290331174582,31.1877
1290331234582,31.1269
1290331294582,31.1975
1290331354582,31.2339
1290331414582,31.1339
1290331474582,31.0902
1290331534582,31.1726
1290331594582,31.1223
1290331654582,31.1844
1290331714582,31.1570
1290331774582,31.1715
1290331834582,31.2504
1290331894582,31.1421
1290331954582,31.1931
1290332014582,31.1458
1290332074582,31.2174
1290332134582,31.2049
1290332194582,31.1731
1290332254582,31.1044
1290332314582,31.1493
1290332374582,31.0920
1290332434582,31.1063
1290332494582,31.2001
1290332554582,31.0402
1290332614582,31.0466
1290332674582,31.1723
1290332734582,31.1228
1290332794582,31.0128
1290332854582,31.0753
1290332914582,31.0339
1290332974582,31.0413
1290333034582,31.1377
1290333094582,31.1238
1290333154582,31.2050
1290333214582,31.2201
1290333274582,31.2057
1290333334582,31.0952
1290333394582,31.1120
1290333454582,31.0898
1290333514582,31.0301
1290333574582,31.0945
1290333634594,31.0933
1290333694594,31.0929
1290333754594,30.9976
1290333814594,31.0670
1290333874594,31.0339
1290333934594,31.1494
1290333994594,30.8822
1290334054594,31.0801
1290334114594,31.0348
1290334174594,31.1690
1290334234594,30.6780
1290334294594,30.9868
1290334354594,31.0830
1290334414594,31.1253
1290334474594,31.2028
1290334534594,31.0575
1290334594594,31.0499
1290334654594,31.1208
1290334714594,31.0641
1290334774594,31.0523
1290334834594,31.0622
1290334894594,31.0404
1290334954594,31.0381
1290335014594,31.0490
1290335074594,31.0390
1290335134594,31.0779
1290335194594,31.0908
1290335254594,31.0898
1290335314594,30.9972
1290335374594,31.0337
1290335434594,30.9320
1290335494594,31.0328
1290335554594,30.9523
1290335614594,30.9518
1290335674594,30.9381
1290335734594,30.9114
1290335794594,31.0434
1290335854594,31.0378
1290335914594,31.0649
1290335974594,31.0736
1290336034594,30.9446
1290336094594,30.9847
1290336154594,31.0441
1290336214594,30.9680
1290336274594,30.9410
1290336334594,31.1025
1290336394594,31.0360
1290336454594,31.0068
1290336514594,31.0499
1290336574594,31.0604
1290336634594,31.0425
1290336694594,31.0851
1290336754594,30.9550
1290336814594,30.9911
1290336874594,31.0552
1290336934594,30.9619
1290336994594,30.9465
1290337054594,31.0436
1290337114594,30.9772
1290337174594,31.0252
1290337234606,30.9322
1290337294606,30.9806
1290337354606,31.0440
1290337414606,31.0017
1290337474606,31.0345
1290337534606,31.0488
1290337594606,31.0464
1290337654606,31.0102
1290337714606,30.9921
1290337774606,30.9990
1290337834606,31.0307
1290337894606,30.9823
1290337954606,31.0021
1290338014606,30.9276
1290338074606,31.0944
1290338134606,31.1145
1290338194606,31.0822
1290338254606,31.0817
1290338314606,31.1487
1290338374606,31.0226
1290338434606,31.1033
1290338494606,31.0920
1290338554606,31.0869
1290338614606,31.1015
1290338674606,31.1572
1290338734606,30.9202
1290338794606,31.0916
1290338854606,31.0218
1290338914606,31.0120
1290338974606,31.1125
1290339034606,31.0809
1290339094606,31.1227
1290339154606,31.0057
1290339214606,31.1222
1290339274606,31.1125
1290339334606,31.0069
1290339394606,31.0279
1290339454606,31.0647
1290339514606,31.0175
1290339574606,31.1087
1290339634606,31.0067
1290339694606,31.0901
1290339754606,31.1015
1290339814606,31.1126
1290339874606,31.1085
1290339934606,31.0389
1290339994606,30.9724
1290340054606,30.9879
1290340114606,31.0904
1290340174606,31.0517
1290340234606,31.0445
1290340294606,30.9831
1290340354606,31.0880
1290340414606,30.9163
1290340474606,31.1664
1290340534606,30.9885
1290340594606,31.0344
1290340654606,31.0684
1290340714606,31.0102
1290340774606,31.0539
1290340834618,31.1126
1290340894618,31.0337
1290340954618,31.0418
1290341014618,31.1462
1290341074618,31.0300
1290341134618,30.9849
1290341194618,30.9232
1290341254618,31.0309
1290341314618,30.9740
1290341374618,31.1230
1290341434618,31.0158
1290341494618,31.0370
1290341554618,31.0148
1290341614618,31.0454
1290341674618,30.9802
1290341734618,31.0695
1290341794618,31.0665
1290341854618,31.0377
1290341914618,30.8778
1290341974618,31.0205
1290342034618,31.1460
1290342094618,31.0384
1290342154618,30.9839
1290342214618,31.0332
1290342274618,31.0484
1290342334618,31.0940
1290342394618,30.9944
1290342454618,31.1061
1290342514618,31.0587
1290342574618,31.1430
1290342634618,31.0109
1290342694618,31.1467
1290342754618,31.0603
1290342814618,30.9806
1290342874618,31.0574
1290342934618,31.0772
1290342994618,31.0257
1290343054618,31.0539
1290343114618,31.0372
1290343174618,31.0935
1290343234618,30.9706
1290343294618,31.0681
1290343354618,31.0419
1290343414618,31.1080
1290343474618,31.0634
1290343534618,31.0490
1290343594618,31.0231
1290343654618,31.1179
1290343714618,31.0652
1290343774618,31.1518
1290343834618,31.0806
1290343894618,30.9854
1290343954618,31.1217
1290344014618,31.1513
1290344074618,31.0940
1290344134618,31.1811
1290344194618,31.0236
1290344254618,31.1026
1290344314618,30.9450
1290344374618,31.0479
1290344434631,31.0882
1290344494631,31.2777
1290344554631,31.1603
1290344614631,31.0383
1290344674631,31.0674
1290344734631,31.1279
1290344794630,31.0695
1290344854630,31.0616
1290344914631,31.0149
1290344974631,31.0842
1290345034631,31.0612
1290345094631,31.0771
1290345154631,31.1130
1290345214631,31.0166
1290345274631,31.0743
1290345334631,31.0714
1290345394631,31.0244
1290345454631,31.0218
1290345514631,31.1133
1290345574631,31.0451
1290345634631,31.0632
1290345694631,31.0189
1290345754631,30.8125
1290345814631,30.9630
1290346954631,31.2123
1290347014631,31.0250
1290347074631,31.1279
1290347134631,31.0495
1290347194631,31.1152
1290347254631,31.1482
1290347314631,31.0764
1290347374631,31.1894
1290347434631,31.0920
1290347494630,31.0430
1290347554630,31.1026
1290347614631,31.0322
1290347674631,31.0739
1290347734631,30.9359
1290347794631,31.0417
1290347854631,31.0530
1290347914631,31.0377
1290347974631,31.0825
1290348034643,31.0150
1290348094643,31.0372
1290348154643,31.0550
1290348214643,31.0706
1290348274643,30.9893
1290348334643,30.9795
1290348394643,31.0696
1290348454643,30.9563
1290348514643,30.9825
1290348574643,30.9956
1290348634643,30.9001
1290348694643,30.9916
1290348754643,31.0392
1290348814643,30.9764
1290348874643,31.0080
1290348934643,31.0998
1290348994643,30.9395
1290349054643,30.9196
1290349114643,30.9312
1290349174643,31.0700
1290349234643,31.0477
1290349294643,31.0007
1290349354643,30.9613
1290349414643,30.9974
1290349474643,30.8900
1290349534643,30.8784
1290349594643,30.9828
1290349654643,30.8840
1290349714643,30.9473
1290349774643,30.8683
1290349834643,30.9697
1290349894643,30.8851
1290349954643,30.9342
1290350014643,30.8648
1290350074643,30.9157
1290350134643,30.8946
1290350194643,30.8889
1290350254643,30.9388
1290350314643,31.0201
1290350374643,30.8798
1290350434643,30.8348
1290350494643,30.8716
1290350554643,30.8808
1290350614643,30.8455
1290350674643,30.9246
1290350734643,30.8581
1290350794643,30.8389
1290350854643,30.9270
1290350914643,30.7992
1290350974643,30.9913
1290351034643,30.9496
1290351094643,30.9331
1290351154643,30.8078
1290351214643,30.8295
1290351274643,30.9238
1290351334643,30.9013
1290351394643,30.8773
1290351454643,30.8071
1290351514643,30.7811
1290351574643,30.9288
1290351634656,30.7512
1290351694656,30.8092
1290351754656,30.8576
1290351814656,30.7837
1290351874656,30.8691
1290351934656,30.9067
1290351994656,30.8100
1290352054656,30.7999
1290352114656,30.8343
1290352174656,30.7981
1290352234656,30.9536
1290352294656,30.9172
1290352354656,30.8025
1290352414656,30.9549
1290352474656,30.8599
1290352534656,30.8879
1290352594656,30.9040
1290352654656,30.8806
1290352714656,30.8666
1290352774656,30.8844
1290352834656,30.8880
1290352894656,30.8120
1290352954656,30.8954
1290353014656,30.9761
1290353074656,31.0014
1290353134656,30.8405
1290353194656,30.9585
1290353254656,30.9573
1290353314656,30.8378
1290353374656,30.8130
1290353434656,30.9306
1290353494656,30.8454
1290353554656,30.8974
1290353614656,30.9324
1290353674656,30.9103
1290353734656,30.9040
1290353794656,30.9769
1290353854656,30.8687
1290353914656,30.9362
1290353974656,30.9332
1290354034656,30.8534
1290354094656,30.8119
1290354154656,30.8198
1290354214656,30.9164
1290354274656,30.8859
1290354334656,30.9035
1290354394656,30.9412
1290354454656,30.9483
1290354514656,30.8923
1290354574656,30.9789
1290354634656,30.9691
1290354694656,30.8160
1290354754656,30.9840
1290354814656,30.8350
1290354874656,30.8535
1290354934656,30.8530
1290354994656,30.9162
1290355054656,30.9200
1290355114656,30.9618
1290355174656,30.9019
1290355234668,30.8975
1290355294668,30.9874
1290355354668,30.9885
1290355414668,30.9765
1290355474668,30.9317
1290355534668,30.9305
1290355594668,30.9092
1290355654668,30.9228
1290355714668,30.8489
1290355774668,30.8972
1290355834668,30.8818
1290355894668,30.9106
1290355954668,30.8084
1290356014668,30.9030
1290356074668,30.8435
1290356134668,30.9531
1290356194668,30.8682
1290356254668,30.8797
1290356314668,30.9732
1290356374668,30.8274
1290356434668,30.9797
1290356494668,30.7992
1290356554668,31.0132
1290356614668,30.9674
1290356674668,30.9113
1290356734668,30.9457
1290356794668,30.9747
1290356854668,30.9346
1290356914668,30.9599
1290356974668,31.0076
1290357034668,30.9358
1290357094668,30.9468
1290357154668,30.8899
1290357214668,30.8854
1290357274668,30.9624
1290357334668,30.9842
1290357394668,30.9229
1290357454668,30.9428
1290357514668,30.9056
1290357574668,30.9805
1290357634668,30.9051
1290357694668,30.9332
1290357754668,30.9418
1290357814668,30.9005
1290357874668,30.9502
1290357934668,30.8301
1290357994668,30.9482
1290358054668,30.9728
1290358114668,31.0039
1290358174668,30.9100
1290358234668,30.9276
1290358294668,30.8416
1290358354668,30.9775
1290358414668,30.8930
1290358474668,30.9601
1290358534668,30.9167
1290358594668,30.9043
1290358654668,30.9854
1290358714668,30.9175
1290358774668,31.0446
1290358834681,30.9519
1290358894681,30.9733
1290358954681,30.9371
1290359014681,30.8186
1290359074681,30.9508
1290359134681,30.9845
1290359194681,30.9268
1290359254681,30.8979
1290359314681,30.9076
1290359374681,31.0048
1290359434681,30.9764
1290359494681,30.8889
1290359554681,30.9312
1290359614681,30.9706
1290359674681,30.9572
1290359734681,30.9785
1290359794681,30.8665
1290359854681,30.8733
1290359914681,30.9452
1290359974681,30.9934
1290360034681,30.8747
1290360094681,30.9452
1290360154681,30.9465
1290360214681,30.9490
1290360274681,31.0024
1290360334681,30.9687
1290360394681,30.9183
1290360454681,30.9141
1290360514681,31.0080
1290360574681,30.9155
1290360634681,30.8971
1290360694681,30.9808
1290360754681,30.9403
1290360814681,31.0447
1290360874681,30.9746
1290360934681,30.9359
1290360994681,30.9694
1290361054681,31.0198
1290361114681,30.9439
1290361174681,30.8772
1290361234681,30.8681
1290361294681,30.8512
1290361354681,30.8954
1290361414681,31.0075
1290361474681,30.9779
1290361534681,30.9674
1290361594681,30.9122
1290361654681,30.9528
1290361714681,30.9284
1290361774681,30.9429
1290361834681,30.8813
1290361894681,30.9394
1290361954681,30.9046
1290362014681,30.8443
1290362074681,30.8349
1290362134681,30.9000
1290362194681,30.9167
1290362254681,30.9490
1290362314681,30.9401
1290362374681,31.0129
1290362434693,30.9905
1290362494693,30.9685
1290362554693,30.9612
1290362614693,30.9962
1290362674693,30.8926
1290362734693,30.9681
1290362794693,30.9053
1290362854693,30.9853
1290362914693,31.0272
1290362974693,30.8577
1290363034693,30.9958
1290363094693,30.9719
1290363154693,30.8625
1290363214693,30.8472
1290363274693,30.9778
1290363334693,31.0113
1290363394693,31.0059
1290363454693,31.0889
1290363514693,31.0387
1290363574693,31.0528
1290363634693,31.0760
1290363694693,31.0345
1290363754693,31.0216
1290363814693,30.9703
1290363874693,30.9328
1290363934693,31.1227
1290363994693,31.1426
1290364054693,31.1061